Regional Weather Roundup
Issued by NWS

Home | Current Version | Previous Version | Graphics & Text | Print | Product List | Glossary On
Versions: 1 2 3 4 5 6 7 8 9 10 11 12 13 14 15 16 17 18 19 20 21 22 23 24 25 26 27 28 29 30 31 32 33 34 35 36 37 38 39 40 41 42 43 44 45 46 47 48 49 50
040
ASUS43 KOAX 021402
RWRNE

WEATHER ROUNDUP FOR NEBRASKA
NATIONAL WEATHER SERVICE OMAHA NE
800 AM CST FRI DEC 02 2016

NOTES: SATELLITE DATA IS BEING USED TO AUGMENT CLOUD COVER ABOVE
       12000 FEET.
       "FAIR" INDICATES FEW OR NO CLOUDS BELOW 12,000 FEET WITH NO
       SIGNIFICANT WEATHER AND/OR OBSTRUCTIONS TO VISIBILITY.

  * THESE STATIONS DO NOT REPORT WEATHER SUCH AS RAIN...SNOW OR FOG.

NEZ001>004-019>022-054>056-021500-
NEBRASKA PANHANDLE

CITY           SKY/WX    TMP DP  RH WIND       PRES   REMARKS
SCOTTSBLUFF    CLEAR     13  10  88 NW6       30.17R WCI   4
ALLIANCE       CLEAR      8   6  92 W3        30.15R
CHADRON        CLEAR     22  19  89 SW3       30.17R
KIMBALL        CLEAR     19  17  91 NW7       30.13R WCI  10
SIDNEY         CLEAR     16  12  84 NW10      30.14R WCI   4
$$

NEZ057>060-069>072-079>082-021500-
SOUTHWEST NEBRASKA

CITY           SKY/WX    TMP DP  RH WIND       PRES   REMARKS
NORTH PLATTE   CLEAR     13   9  84 NW5       30.19R WCI   5
IMPERIAL       CLOUDY    20  14  77 NW8       30.17R WCI  10
LEXINGTON      CLEAR     17  14  87 NW5       30.20R WCI  10
MCCOOK         CLEAR     17  11  77 NW5       30.19R WCI  10
OGALLALA       CLEAR     14  11  87 W8        30.18R WCI   3
$$

NEZ005>010-023>029-035>040-094-021500-
NORTH CENTRAL NEBRASKA

CITY           SKY/WX    TMP DP  RH WIND       PRES   REMARKS
VALENTINE      PTCLDY    20  17  88 SW3       30.18R
AINSWORTH      CLOUDY    21  20  97 SW5       30.18R WCI  14
BROKEN BOW     CLEAR     20  18  92 NW5       30.18R WCI  13
O`NEILL        PTCLDY    22  21  96 CALM      30.20R
ORD            CLEAR     16  13  88 NW3       30.20R
THEDFORD       CLEAR     19  17  94 SW5       30.18R WCI  12
$$

NEZ041-046>049-061>064-073>077-083>087-021500-
SOUTH CENTRAL NEBRASKA

CITY           SKY/WX    TMP DP  RH WIND       PRES   REMARKS
GRAND ISLAND   CLEAR     19  17  92 NW7       30.21R WCI  10
AURORA         PTCLDY    19  18  95 CALM      30.21R
HASTINGS       CLEAR     19  16  88 N3        30.22R
HEBRON         CLEAR     19  17  93 CALM      30.24R
HOLDREGE       CLEAR     15  13  92 N3        30.19R
KEARNEY *      CLEAR     19  14  79 NW5       30.21R WCI  13
YORK           CLEAR     19  19 100 N6        30.22R WCI  11
$$

NEZ011>018-030>034-042>045-021500-
NORTHEAST NEBRASKA

CITY           SKY/WX    TMP DP  RH WIND       PRES   REMARKS
NORFOLK        CLOUDY    22  19  89 W3        30.21R
ALBION         CLEAR     21  19  91 N3        30.21R
BLAIR          CLEAR     28  26  94 CALM      30.22R
FREMONT        CLEAR     26  25  99 CALM      30.23R
TEKAMAH        CLEAR     29  27  92 W7        30.23R WCI  22
WAYNE          PTCLDY    24  23  96 CALM      30.21R
$$

NEZ050>053-065>068-078-088>093-021500-
SOUTHEAST NEBRASKA

CITY           SKY/WX    TMP DP  RH WIND       PRES   REMARKS
LINCOLN        CLEAR     21  19  92 N3        30.25R
OMAHA EPPLEY   PTCLDY    29  23  78 CALM      30.24R
BEATRICE       CLEAR     18  16  90 CALM      30.24R
FALLS CITY     CLEAR     22  19  89 CALM      30.25R
NEBRASKA CITY  CLEAR     29  24  81 NW6       30.24R WCI  23
PLATTSMOUTH    CLEAR     27  23  85 W6        30.23R WCI  20
$$

NEZ044-045-051>053-067-021500-
OMAHA AREA

CITY           SKY/WX    TMP DP  RH WIND       PRES   REMARKS
OMAHA EPPLEY   PTCLDY    29  23  78 CALM      30.24R
BLAIR          CLEAR     28  26  94 CALM      30.22R
FREMONT        CLEAR     26  25  99 CALM      30.23R
MILLARD        CLEAR     28  26  92 CALM      30.24R
OFFUTT AFB     CLEAR     25  25  99 NW5       30.23R WCI  19
PLATTSMOUTH    CLEAR     27  23  85 W6        30.23R WCI  20
WAHOO          FAIR      27  24  91 NW5       30.23S WCI  21
$$




USA.gov is the U.S. government's official web portal to all federal, state and local government web resources and services.